Home > Weather > Plzen > Past weeks

Flag for Czech Republic Past Weather in Plzen, Czech Republic — Yesterday and Last 2 Weeks

Now
60 °F

Cool.


Feels Like: 60 °F
Forecast: 60 / 77 °F
Wind: 1 mph from Northwest

Location: Kocelovice

Current Time: Jul 28, 2016 at 3:10:24 AM

Latest Report: Jul 28, 2016 at 2:00 AM


Visibility: 6 mi

Pressure: 30.02 "Hg

Humidity: 99%

Dew Point: 60 °F

Location of PlzenLocation

Past Weather in Plzen — Graph

°F

Plzen Temperature Yesterday

Maximum temperature yesterday: 76 °F (at 4:00 PM)
Minimum temperature yesterday: 60 °F (at 11:00 PM)
Average temperature yesterday: 66 °F

High & Low Weather Summary for the Past Weeks

 TemperatureHumidityPressure
High81 °F (Jul 25, 4:00 PM)100% (Jul 17, 6:00 AM)30.30 "Hg (Jul 17, 6:00 AM)
Low48 °F (Jul 15, 3:00 AM)40% (Jul 18, 2:00 PM)29.84 "Hg (Jul 13, 4:00 PM)
Average65 °F79%30.05 "Hg
* Reported Jul 13 2:00 AM — Jul 28 2:00 AM, Plzen, Weather by CustomWeather, © 2016

Note: Actual official high and low records may vary slightly from our data, if they occured in-between our weather recording intervals... More about our weather records

Advertising

Plzen Weather History for the Previous 24 Hours

Scroll right to see more
 ConditionsComfort  
Time TempWeatherWind HumidityBarometerVisibility
2:00 AM
Thu, Jul 28
60 °FCool.1 mph99%30.02 "Hg6 mi
1:00 AM60 °FCool.2 mph98%30.02 "Hg9 mi
12:00 AM61 °FCool.1 mph97%30.01 "Hg11 mi
11:00 PM
Wed, Jul 27
60 °FCool.N/A97%30.01 "Hg12 mi
10:00 PM61 °FOvercast.2 mph98%30.02 "Hg12 mi
9:00 PM61 °FOvercast.2 mph96%30.02 "Hg16 mi
8:00 PM62 °FThunderstorms. Overcast.N/A95%30.00 "Hg16 mi
7:00 PM62 °FThundershowers. Overcast.N/A89%30.00 "Hg10 mi
6:00 PM68 °FThundershowers. Overcast.7 mph83%29.97 "Hg11 mi
5:00 PM73 °FPartly sunny.5 mph67%29.91 "Hg14 mi
4:00 PM76 °FPartly sunny.N/A61%29.92 "Hg14 mi
3:00 PM75 °FPartly sunny.3 mph65%29.93 "Hg12 mi
2:00 PM73 °FSprinkles. Overcast.3 mph77%29.95 "Hg11 mi
1:00 PM76 °FPartly sunny.N/A60%29.96 "Hg12 mi
12:00 PM75 °FPartly sunny.N/A71%29.98 "Hg11 mi
11:00 AM71 °FOvercast.N/A76%30.00 "Hg9 mi
10:00 AM68 °FFog.N/A88%30.02 "Hg6 mi
9:00 AM66 °FFog.N/A93%30.03 "Hg4 mi
8:00 AM65 °FFog.N/A97%30.04 "Hg2 mi
7:00 AM63 °FFog.1 mph98%30.04 "Hg1 mi
6:00 AM62 °FFog.2 mph99%30.05 "Hg1 mi
5:00 AM63 °FFog.1 mph98%30.05 "Hg2 mi
4:00 AM62 °FFog.2 mph100%30.06 "Hg1 mi
3:00 AM63 °FFog.1 mph98%30.06 "Hg2 mi
Weather by CustomWeather, © 2016

See weather overviewHow to use our weather pages